Regional Weather Roundup
Issued by NWS

Home | Current Version | Previous Version | Graphics & Text | Print | Product List | Glossary On
Versions: 1 2 3 4 5 6 7 8 9 10 11 12 13 14 15 16 17 18 19 20 21 22 23 24 25 26 27 28 29 30 31 32 33 34 35 36 37 38 39 40 41 42 43 44 45 46 47 48 49 50
000
ASUS43 KLOT 301121
RWRIL

ILLINOIS REGIONAL WEATHER ROUNDUP
NATIONAL WEATHER SERVICE CHICAGO/ROMEOVILLE IL
600 AM CDT THU JUL 30 2015

NOTE: "FAIR" INDICATES FEW OR NO CLOUDS BELOW 12,000 FEET WITH NO
SIGNIFICANT WEATHER AND/OR OBSTRUCTIONS TO VISIBILITY.

* THESE STATIONS ARE NOT UNDER NWS QUALITY CONTROL. THEY ALSO MAY NOT
  REPORT WEATHER SUCH AS PRECIPITATION OR FOG.

ILZ001-002-007-009-015-016-024-301200-
NORTHWEST ILLINOIS

CITY           SKY/WX    TMP DP  RH WIND       PRES   REMARKS
MOLINE         CLEAR     61  57  87 SW5       30.10R
STERLING*      CLEAR     61  57  88 W6        30.07S
SAVANNA*       CLEAR     66  59  77 W7        30.07S
$$

ILZ003-004-008-010-011-017-018-301200-
NORTH CENTRAL ILLINOIS

CITY           SKY/WX    TMP DP  RH WIND       PRES   REMARKS
ROCKFORD       CLEAR     64  57  78 CALM      30.07R
FREEPORT*      CLEAR     60  56  87 W5        30.08R
ROCHELLE*      CLEAR     58  57  97 SW7       30.08R
DE KALB*       CLEAR     63  58  86 W9        30.07R
PERU*          CLEAR     65  59  81 W10       30.09R
$$

ILZ005-006-012>014-019>023-301200-
NORTHEAST ILLINOIS

CITY           SKY/WX    TMP DP  RH WIND       PRES   REMARKS
CHICAGO-OHARE  CLEAR     65  58  78 W5        30.04R
CHICAGO-MIDWAY CLEAR     69  57  65 W7        30.04R
AURORA         CLEAR     58  55  90 W5        30.06R
LANSING*       CLEAR     64  55  73 W5        30.05R
JOLIET*        CLEAR     66  60  81 W5        30.06S
WAUKEGAN       CLEAR     65  57  75 SW5       30.01R
DUPAGE AIRPORT CLEAR     63  58  83 W6        30.05R
KANKAKEE*      CLEAR     62  60  93 W6        30.08R
WHEELING       CLEAR     67  57  70 W5        30.05R
MORRIS*        CLEAR     62  59  88 W7        30.06R
ROMEOVILLE*    CLEAR     62  58  87 W5        30.06R
NORTHERLY ISL    N/A     71  57  61 W9          N/A
$$

LMZ740>746-301200-
SOUTHERN LAKE MICHIGAN

STATION/POSITION SKY/WX   TEMP    WIND        PRES    VSBY  WAVE
                          AIR SEA DIR/SP/G                  HT/PER
                          (F)     (DEG/KT/KT) (MB)    (MI)  (FT/S)
HARRISON CRIB              71     270/ 15/ 17   N/A
BURNHAM HARBOR             71     280/  8/ 12   N/A
BURNS HARBOR               72     270/ 15/ 17 1016.9R
MICHIGAN CITY              73     260/ 19/ 23   N/A
MICHIGAN CITY 6N           74 73  290/ 16/ 19   N/A           4/ 4
ST. JOSEPH                 72 73  330/ 14/ 16   N/A           3/ 4
$$

ILZ025>027-034>036-040-047-049-050-058-095>099-301200-
WEST-CENTRAL ILLINOIS

CITY           SKY/WX    TMP DP  RH WIND       PRES   REMARKS
QUINCY         CLEAR     65  60  84 W6        30.14R
GALESBURG*     CLEAR     64  59  84 W5        30.12R
MACOMB*        CLEAR     61  59  95 W6        30.14S
JACKSONVILLE*  CLEAR     64  61  91 SW3       30.13S
PITTSFIELD*    FAIR      66  60  80 W3        30.15R
$$

ILZ028>032-037-038-041>044-048-051>054-059>061-301200-
CENTRAL ILLINOIS

CITY           SKY/WX    TMP DP  RH WIND       PRES   REMARKS
PONTIAC        CLEAR     63  61  94 W5        30.10R
BLOOMINGTON    CLEAR     68  59  73 NW12      30.12R
DECATUR        CLEAR     69  59  70 NW9       30.11R
PEORIA         CLEAR     71  57  61 W5        30.11R
LACON*         CLEAR     64  59  82 CALM      30.09R
LINCOLN*       CLEAR     66  60  80 W3        30.11S
SPRINGFIELD    CLEAR     63  59  87 W5        30.12S
TAYLORVILLE    CLEAR     59  57  94 CALM      30.12R
$$

ILZ033-039-045-046-055>057-062-063-301200-
EAST-CENTRAL ILLINOIS

CITY           SKY/WX    TMP DP  RH WIND       PRES   REMARKS
CHAMPAIGN      CLEAR     61  59  93 W6        30.10S
DANVILLE*      CLEAR     62  60  93 W6        30.06S
RANTOUL*       CLEAR     62  60  93 W7        30.09S
MATTOON        CLEAR     63  58  83 NW8       30.09S
PARIS*         CLEAR     60  59  96 W3        30.10R
$$

ILZ079-100>102-301200-
SOUTHWEST ILLINOIS

CITY           SKY/WX    TMP DP  RH WIND       PRES   REMARKS
ALTON          CLEAR     64  59  83 CALM      30.13R
BELLEVILLE     CLEAR     66  61  84 N3        30.12R
CAHOKIA*       CLEAR     64  61  90 CALM      30.13R
SPARTA*        CLEAR     67  61  80 CALM      30.13R
$$

ILZ064>066-069>071-074>076-080>082-084>086-088>090-092>094-301200-
SOUTH-CENTRAL ILLINOIS

CITY           SKY/WX    TMP DP  RH WIND       PRES   REMARKS
CARBONDALE     CLEAR     66  64  93 CALM      30.12R
CAIRO*         CLEAR     69  64  84 CALM      30.11R
EFFINGHAM*     CLEAR     63  57  82 W3        30.12R
MARION         CLEAR     66  64  94 CALM      30.12R
MT. VERNON     CLEAR     66  55  68 CALM      30.13R
CENTRALIA*     CLEAR     62  59  90 CALM      30.12R
SALEM*         CLEAR     65  61  84 CALM      30.12R
METROPOLIS*    CLEAR     68  67  96 CALM      30.11R
$$

ILZ067-068-072-073-078-083-087-091-301200-
SOUTHEAST ILLINOIS

CITY           SKY/WX    TMP DP  RH WIND       PRES   REMARKS
LAWRENCEVILLE  CLEAR     64  60  87 NW6       30.09R
FLORA*         CLEAR     65  60  83 NW5       30.11R
FAIRFIELD*     CLEAR     65  60  84 CALM      30.10R
HARRISBURG*    CLEAR     65  63  93 CALM      30.12R
ROBINSON*      CLEAR     61  60  96 CALM      30.10R
CARMI*         CLEAR     64  59  81 CALM      30.10R
$$

ABBREVIATIONS USED IN REMARKS
   TC - TEMPERATURE IN CELSIUS
  WCI - WIND CHILL INDEX
   HX - HEAT INDEX
  VSB - VISIBILITY
$$



USA.gov is the U.S. government's official web portal to all federal, state and local government web resources and services.